Satellite: HUBBLE
Catalog number: 20580
Epoch time:      06186.65857111
Element set:     647
Inclination:      028.4691 deg
RA of node:       289.4684 deg
Eccentricity:    0.0003335
Arg of perigee:   023.2153 deg
Mean anomaly:     336.8588 deg
Mean motion:   15.00060452 rev/day
Decay rate:       3.38e-06 rev/day^2
Epoch rev:           68787
Checksum:              311

Satellite: UARS
Catalog number: 21701
Epoch time:      06186.89795779
Element set:    0827
Inclination:      056.9789 deg
RA of node:       011.7795 deg
Eccentricity:    0.0098308
Arg of perigee:   243.5181 deg
Mean anomaly:     115.5775 deg
Mean motion:   15.43884711 rev/day
Decay rate:      3.266e-05 rev/day^2
Epoch rev:           81219
Checksum:              355

Satellite: PO-34
Catalog number: 25520
Epoch time:      06186.83788201
Element set:     505
Inclination:      028.4584 deg
RA of node:       266.3727 deg
Eccentricity:    0.0005709
Arg of perigee:   085.6154 deg
Mean anomaly:     274.5086 deg
Mean motion:   15.16742386 rev/day
Decay rate:       5.03e-06 rev/day^2
Epoch rev:           42488
Checksum:              322

Satellite: ISS
Catalog number: 25544
Epoch time:      06187.98133102
Element set:     242
Inclination:      051.6309 deg
RA of node:       085.5226 deg
Eccentricity:    0.0010427
Arg of perigee:   048.0289 deg
Mean anomaly:     131.1714 deg
Mean motion:   15.76149343 rev/day
Decay rate:     1.4207e-04 rev/day^2
Epoch rev:           43628
Checksum:              279

Satellite: OO-38
Catalog number: 26063
Epoch time:      06186.76027804
Element set:     659
Inclination:      100.1889 deg
RA of node:       121.1443 deg
Eccentricity:    0.0037355
Arg of perigee:   055.2083 deg
Mean anomaly:     305.2608 deg
Mean motion:   14.35770220 rev/day
Decay rate:       -3.0e-08 rev/day^2
Epoch rev:           33733
Checksum:              282

Satellite: NO-45
Catalog number: 26932
Epoch time:      06187.81489846
Element set:     355
Inclination:      067.0514 deg
RA of node:       316.8300 deg
Eccentricity:    0.0008642
Arg of perigee:   251.7828 deg
Mean anomaly:     108.2332 deg
Mean motion:   14.29528689 rev/day
Decay rate:       -7.8e-07 rev/day^2
Epoch rev:           24877
Checksum:              339

Satellite: UWE-1
Catalog number: 28892
Epoch time:      06187.73737343
Element set:     494
Inclination:      098.1627 deg
RA of node:       085.6374 deg
Eccentricity:    0.0018494
Arg of perigee:   109.1329 deg
Mean anomaly:     251.1892 deg
Mean motion:   14.59370041 rev/day
Decay rate:       1.71e-06 rev/day^2
Epoch rev:            3682
Checksum:              323

Satellite: CO-58
Catalog number: 28895
Epoch time:      06187.72782544
Element set:     477
Inclination:      098.1631 deg
RA of node:       085.7146 deg
Eccentricity:    0.0018860
Arg of perigee:   108.2253 deg
Mean anomaly:     252.1014 deg
Mean motion:   14.59421750 rev/day
Decay rate:        1.2e-07 rev/day^2
Epoch rev:            3670
Checksum:              310

Satellite: NCUBE2
Catalog number: 28897
Epoch time:      06186.26340540
Element set:    0092
Inclination:      098.1619 deg
RA of node:       084.2595 deg
Eccentricity:    0.0018066
Arg of perigee:   115.3441 deg
Mean anomaly:     244.9628 deg
Mean motion:   14.59577211 rev/day
Decay rate:       1.41e-06 rev/day^2
Epoch rev:           02876
Checksum:              314

/EX




----
Via the keps mailing list at AMSAT.ORG courtesy of AMSAT-NA.
To unsubscribe, send "unsubscribe keps" to Majordomo@amsat.org

--- ViaMAIL!/WC v1.60d
 * Origin: Chowdanet (401-724-4410) telnet://chowdanet.com  (1:323/120)